BADR-7 (ARABSAT-6B)

Last updated on Sat Apr 26 2025 00:02:42 GMT+0000 (Coordinated Universal Time)

1 41029U 15065B 25115.53570233 .00000147 00000+0 00000+0 0 9995 2 41029 0.0355 237.8535 0002519 7.3509 187.4453 1.00269272 34575
UTC large
Height (km)
Speed (km/s)
/
Latitude / Longitude
Inclination (degrees)
Orbital Period (minutes)
Azimuth
Elevation
Range (km)
Doppler Factor

Next 0 passes for location: London (51.5072 / 0.1276)

Sorry there are no passes over London.